Find Starlink 31307

NORAD ID: 59089 Int'l Des: 2024-041 Owner: SPXS Country: US Constellation: starlink operational
LEOCIRCULAR

当前视图

正在加载3D地球...

About Starlink 31307

Starlink 31307 (NORAD 59089) is a starlink constellation satellite (v2 mini) launched Feb 29, 2024 by SPXS of US. It operates in LEO, CIRCULAR orbit with a mass of 730.00 kg.

关于 Starlink 31307

正在加载描述...

即将过境

Passes for default location (London). Set your location on the main map for personalized predictions.

高度历史

Loading altitude history...

两行轨道根数

1 59089U 24041R 26166.90050153 -.00000321 00000-0 -21360-5 0 9991
2 59089 43.0011 115.8906 0000892 270.2406 89.8343 15.27573788129349
Epoch: Jun 15, 2026 • Age: 20 hours

当前状态

高度 482.9 km
速度 7.63 km/s
星下点 0.00°N, 127.87°E
发射日期 Feb 29, 2024
运行时间 2.2 years
类型 internet

技术详情

分类 Payload
质量 730.00 kg
干质量 700.00 kg
总质量 730.00 kg
长度 0.30 m
直径 4.10 m
跨度 29.00 m
形状 Box + pan
制造商 SPXS
平台类型 Starlink V2M
阶段状态 In Orbit
所有者/国家 SPXS/US

Most Searched